| time (UTC) | temp F | wind direction | speed knots | gust knots | rain 1hr in | rain 24hr in | rain mn in | humidity % | barometer mb |
| 20260508004812 | 56 | 284 | 0.0 | 0.0 | 0.00 | 0.00 | 0.00 | 46 | 1013.0 |
| 20260508004324 | 57 | 283 | 0.0 | 0.0 | 0.00 | 0.00 | 0.00 | 45 | 1012.9 |
| 20260508003816 | 58 | 283 | 0.0 | 0.0 | 0.00 | 0.00 | 0.00 | 44 | 1012.9 |
| 20260508003349 | 59 | 284 | 0.0 | 0.0 | 0.00 | 0.00 | 0.00 | 43 | 1012.8 |
| 20260508002820 | 59 | 284 | 0.0 | 1.7 | 0.00 | 0.00 | 0.00 | 44 | 1012.8 |
| 20260508002317 | 60 | 283 | 0.0 | 1.7 | 0.00 | 0.00 | 0.00 | 42 | 1012.8 |
| 20260508001830 | 61 | 27 | 0.0 | 1.7 | 0.00 | 0.00 | 0.00 | 43 | 1012.7 |
| 20260508001342 | 62 | 27 | 0.0 | 1.7 | 0.00 | 0.00 | 0.00 | 41 | 1012.7 |
| 20260508000813 | 62 | 31 | 0.0 | 0.9 | 0.00 | 0.00 | 0.00 | 43 | 1012.6 |
| 20260508000327 | 62 | 31 | 0.9 | 0.9 | 0.00 | 0.00 | 0.00 | 41 | 1012.6 |
| 20260507235837 | 62 | 31 | 0.9 | 1.7 | 0.00 | 0.00 | 0.00 | 42 | 1012.6 |
| 20260507235329 | 62 | 32 | 0.9 | 1.7 | 0.00 | 0.00 | 0.00 | 42 | 1012.6 |
| 20260507234821 | 61 | 32 | 0.9 | 2.6 | 0.00 | 0.00 | 0.00 | 40 | 1012.6 |
| 20260507234313 | 61 | 33 | 0.9 | 3.5 | 0.00 | 0.00 | 0.00 | 42 | 1012.6 |
| 20260507233824 | 61 | 14 | 1.7 | 3.5 | 0.00 | 0.00 | 0.00 | 41 | 1012.5 |
| 20260507233321 | 61 | 41 | 1.7 | 4.3 | 0.00 | 0.00 | 0.00 | 41 | 1012.6 |
| 20260507225904 | 62 | 46 | 2.6 | 6.1 | 0.00 | 0.00 | 0.00 | 42 | 1012.7 |
| 20260507225350 | 62 | 355 | 1.7 | 5.2 | 0.00 | 0.00 | 0.00 | 40 | 1012.7 |
| 20260507224821 | 61 | 262 | 3.5 | 5.2 | 0.00 | 0.00 | 0.00 | 39 | 1012.7 |
| 20260507224316 | 62 | 348 | 2.6 | 6.1 | 0.00 | 0.00 | 0.00 | 41 | 1012.6 |
| 20260507223830 | 61 | 23 | 3.5 | 6.1 | 0.00 | 0.00 | 0.00 | 41 | 1012.7 |
| 20260507214822 | 61 | 37 | 4.3 | 7.0 | 0.00 | 0.00 | 0.00 | 39 | 1012.7 |
| 20260507214314 | 61 | 30 | 4.3 | 7.0 | 0.00 | 0.00 | 0.00 | 40 | 1012.7 |
| 20260507213826 | 61 | 39 | 3.5 | 11.3 | 0.00 | 0.00 | 0.00 | 39 | 1012.8 |
| 20260507213319 | 61 | 348 | 5.2 | 11.3 | 0.00 | 0.00 | 0.00 | 37 | 1012.8 |
| 20260507212831 | 61 | 316 | 4.3 | 11.3 | 0.00 | 0.00 | 0.00 | 40 | 1012.8 |
| 20260507212327 | 61 | 293 | 6.1 | 11.3 | 0.00 | 0.00 | 0.00 | 40 | 1012.8 |
| 20260507211820 | 61 | 321 | 6.1 | 10.4 | 0.00 | 0.00 | 0.00 | 39 | 1012.8 |
| 20260507211331 | 61 | 294 | 2.6 | 12.2 | 0.00 | 0.00 | 0.00 | 41 | 1012.8 |
| 20260507210823 | 61 | 1 | 7.0 | 12.2 | 0.00 | 0.00 | 0.00 | 38 | 1012.8 |
| 20260507210314 | 61 | 19 | 4.3 | 9.6 | 0.00 | 0.00 | 0.00 | 41 | 1012.7 |
| 20260507205824 | 61 | 53 | 2.6 | 9.6 | 0.00 | 0.00 | 0.00 | 39 | 1012.7 |
| 20260507205317 | 61 | 8 | 6.1 | 12.2 | 0.00 | 0.00 | 0.00 | 41 | 1012.7 |
| 20260507204850 | 61 | 40 | 5.2 | 11.3 | 0.00 | 0.00 | 0.00 | 39 | 1012.7 |
| 20260507204320 | 61 | 46 | 6.1 | 9.6 | 0.00 | 0.00 | 0.00 | 39 | 1012.7 |
| 20260507203836 | 61 | 237 | 0.9 | 7.8 | 0.00 | 0.00 | 0.00 | 40 | 1012.6 |
| 20260507203327 | 61 | 30 | 6.1 | 10.4 | 0.00 | 0.00 | 0.00 | 39 | 1012.8 |
| 20260507202820 | 61 | 315 | 4.3 | 13.0 | 0.00 | 0.00 | 0.00 | 43 | 1012.8 |
| 20260507202312 | 60 | 33 | 6.1 | 13.0 | 0.00 | 0.00 | 0.00 | 39 | 1012.7 |
| 20260507201825 | 61 | 13 | 7.8 | 11.3 | 0.00 | 0.00 | 0.00 | 39 | 1012.7 |
| 20260507201317 | 61 | 288 | 5.2 | 9.6 | 0.00 | 0.00 | 0.00 | 37 | 1012.6 |
| 20260507200829 | 61 | 333 | 2.6 | 7.8 | 0.00 | 0.00 | 0.00 | 43 | 1012.7 |
| 20260507200322 | 61 | 347 | 3.5 | 9.6 | 0.00 | 0.00 | 0.00 | 41 | 1012.9 |
| 20260507195813 | 61 | 314 | 5.2 | 9.6 | 0.00 | 0.00 | 0.00 | 41 | 1012.8 |
| 20260507195324 | 61 | 4 | 3.5 | 10.4 | 0.00 | 0.00 | 0.00 | 39 | 1012.8 |
| 20260507194817 | 60 | 23 | 3.5 | 12.2 | 0.00 | 0.00 | 0.00 | 40 | 1012.8 |
| 20260507194329 | 61 | 285 | 5.2 | 10.4 | 0.00 | 0.00 | 0.00 | 38 | 1012.8 |
| 20260507193822 | 61 | 278 | 5.2 | 8.7 | 0.00 | 0.00 | 0.00 | 38 | 1013.0 |
| 20260507192813 | 60 | 309 | 7.0 | 14.8 | 0.00 | 0.00 | 0.00 | 37 | 1013.1 |
| 20260507192325 | 60 | 360 | 6.1 | 13.0 | 0.00 | 0.00 | 0.00 | 38 | 1013.2 |
| 20260507191818 | 60 | 345 | 7.8 | 13.0 | 0.00 | 0.00 | 0.00 | 36 | 1013.1 |
| 20260507191311 | 61 | 253 | 3.5 | 7.8 | 0.00 | 0.00 | 0.00 | 38 | 1013.1 |
| 20260507190829 | 60 | 352 | 2.6 | 7.8 | 0.00 | 0.00 | 0.00 | 40 | 1013.1 |
| 20260507190321 | 60 | 38 | 3.5 | 8.7 | 0.00 | 0.00 | 0.00 | 41 | 1013.2 |
| 20260507185829 | 60 | 4 | 6.1 | 9.6 | 0.00 | 0.00 | 0.00 | 40 | 1013.2 |
| 20260507185321 | 60 | 29 | 6.1 | 9.6 | 0.00 | 0.00 | 0.00 | 39 | 1013.1 |
| 20260507184813 | 59 | 66 | 4.3 | 13.9 | 0.00 | 0.00 | 0.00 | 41 | 1013.2 |
| 20260507184324 | 59 | 40 | 5.2 | 13.9 | 0.00 | 0.00 | 0.00 | 39 | 1013.3 |
| 20260507183817 | 59 | 43 | 7.8 | 11.3 | 0.00 | 0.00 | 0.00 | 41 | 1013.2 |
| 20260507183328 | 59 | 41 | 5.2 | 13.0 | 0.00 | 0.00 | 0.00 | 41 | 1013.1 |
| 20260507182820 | 59 | 319 | 5.2 | 13.0 | 0.00 | 0.00 | 0.00 | 38 | 1013.1 |
| 20260507182336 | 59 | 332 | 7.0 | 10.4 | 0.00 | 0.00 | 0.00 | 39 | 1013.2 |
| 20260507181828 | 59 | 8 | 6.1 | 12.2 | 0.00 | 0.00 | 0.00 | 38 | 1013.3 |
| 20260507181320 | 60 | 345 | 6.1 | 12.2 | 0.00 | 0.00 | 0.00 | 42 | 1013.3 |
| 20260507180314 | 59 | 110 | 4.3 | 11.3 | 0.00 | 0.00 | 0.00 | 43 | 1013.4 |
| 20260507175844 | 59 | 321 | 4.3 | 11.3 | 0.00 | 0.00 | 0.00 | 43 | 1013.5 |
| 20260507175315 | 59 | 46 | 3.5 | 9.6 | 0.00 | 0.00 | 0.00 | 42 | 1013.5 |
| 20260507174828 | 58 | 328 | 5.2 | 10.4 | 0.00 | 0.00 | 0.00 | 41 | 1013.5 |
| 20260507174322 | 58 | 348 | 4.3 | 10.4 | 0.00 | 0.00 | 0.00 | 44 | 1013.7 |
| 20260507173817 | 58 | 26 | 4.3 | 12.2 | 0.00 | 0.00 | 0.00 | 41 | 1013.8 |
| 20260507173350 | 58 | 41 | 7.8 | 12.2 | 0.00 | 0.00 | 0.00 | 39 | 1013.8 |
| 20260507172825 | 58 | 232 | 3.5 | 11.3 | 0.00 | 0.00 | 0.00 | 45 | 1013.8 |
| 20260507172317 | 58 | 305 | 5.2 | 13.9 | 0.00 | 0.00 | 0.00 | 42 | 1014.0 |
| 20260507171829 | 58 | 61 | 6.1 | 14.8 | 0.00 | 0.00 | 0.00 | 42 | 1014.1 |
| 20260507171321 | 58 | 31 | 5.2 | 10.4 | 0.00 | 0.00 | 0.00 | 41 | 1014.2 |
| 20260507170813 | 58 | 294 | 5.2 | 13.9 | 0.00 | 0.00 | 0.00 | 42 | 1014.2 |
| 20260507170325 | 57 | 274 | 6.1 | 13.9 | 0.00 | 0.00 | 0.00 | 42 | 1014.2 |
| 20260507165815 | 57 | 14 | 5.2 | 11.3 | 0.00 | 0.00 | 0.00 | 42 | 1014.3 |
| 20260507165347 | 57 | 281 | 5.2 | 11.3 | 0.00 | 0.00 | 0.00 | 42 | 1014.4 |
| 20260507164819 | 57 | 347 | 6.1 | 11.3 | 0.00 | 0.00 | 0.00 | 42 | 1014.4 |
| 20260507164315 | 57 | 40 | 6.1 | 12.2 | 0.00 | 0.00 | 0.00 | 41 | 1014.4 |
| 20260507163828 | 57 | 288 | 8.7 | 12.2 | 0.00 | 0.00 | 0.00 | 39 | 1014.4 |
| 20260507163401 | 57 | 44 | 5.2 | 13.0 | 0.00 | 0.00 | 0.00 | 42 | 1014.7 |
| 20260507162829 | 57 | 302 | 5.2 | 13.0 | 0.00 | 0.00 | 0.00 | 41 | 1014.5 |
| 20260507162323 | 57 | 299 | 7.0 | 13.0 | 0.00 | 0.00 | 0.00 | 39 | 1014.4 |
| 20260507161816 | 56 | 39 | 3.5 | 10.4 | 0.00 | 0.00 | 0.00 | 42 | 1014.5 |
| 20260507161329 | 56 | 15 | 4.3 | 9.6 | 0.00 | 0.00 | 0.00 | 41 | 1014.5 |
| 20260507160841 | 56 | 349 | 3.5 | 11.3 | 0.00 | 0.00 | 0.00 | 42 | 1014.5 |
| 20260507160334 | 56 | 297 | 4.3 | 15.6 | 0.00 | 0.00 | 0.00 | 42 | 1014.5 |
| 20260507155843 | 56 | 294 | 6.1 | 15.6 | 0.00 | 0.00 | 0.00 | 40 | 1014.5 |
| 20260507155316 | 57 | 348 | 5.2 | 7.8 | 0.00 | 0.00 | 0.00 | 44 | 1014.5 |
| 20260507154814 | 57 | 357 | 3.5 | 10.4 | 0.00 | 0.00 | 0.00 | 41 | 1014.5 |
| 20260507154328 | 57 | 335 | 4.3 | 10.4 | 0.00 | 0.00 | 0.00 | 42 | 1014.5 |
| 20260507153822 | 56 | 297 | 2.6 | 8.7 | 0.00 | 0.00 | 0.00 | 45 | 1014.4 |
| 20260507153316 | 56 | 347 | 4.3 | 7.8 | 0.00 | 0.00 | 0.00 | 47 | 1014.4 |
| 20260507152830 | 55 | 348 | 4.3 | 7.8 | 0.00 | 0.00 | 0.00 | 48 | 1014.4 |
| 20260507151824 | 55 | 26 | 4.3 | 8.7 | 0.00 | 0.00 | 0.00 | 49 | 1014.4 |
| 20260507151321 | 55 | 283 | 2.6 | 8.7 | 0.00 | 0.00 | 0.00 | 46 | 1014.3 |
| 20260507150815 | 55 | 324 | 3.5 | 8.7 | 0.00 | 0.00 | 0.00 | 45 | 1014.4 |
| 20260507150328 | 55 | 309 | 3.5 | 7.8 | 0.00 | 0.00 | 0.00 | 48 | 1014.4 |
| 20260507145817 | 54 | 281 | 5.2 | 7.8 | 0.00 | 0.00 | 0.00 | 47 | 1014.5 |
| 20260507145328 | 54 | 321 | 2.6 | 11.3 | 0.00 | 0.00 | 0.00 | 49 | 1014.5 |
| 20260507144821 | 54 | 8 | 3.5 | 11.3 | 0.00 | 0.00 | 0.00 | 47 | 1014.5 |
| 20260507144313 | 54 | 360 | 3.5 | 6.1 | 0.00 | 0.00 | 0.00 | 52 | 1014.5 |
| 20260507143827 | 54 | 351 | 3.5 | 8.7 | 0.00 | 0.00 | 0.00 | 49 | 1014.5 |
| 20260507143324 | 54 | 4 | 3.5 | 9.6 | 0.00 | 0.00 | 0.00 | 52 | 1014.4 |
| 20260507142317 | 53 | 42 | 4.3 | 7.8 | 0.00 | 0.00 | 0.00 | 52 | 1014.5 |
| 20260507141831 | 53 | 32 | 6.1 | 10.4 | 0.00 | 0.00 | 0.00 | 51 | 1014.6 |
| 20260507141324 | 53 | 41 | 5.2 | 8.7 | 0.00 | 0.00 | 0.00 | 50 | 1014.6 |
| 20260507140818 | 53 | 5 | 2.6 | 9.6 | 0.00 | 0.00 | 0.00 | 53 | 1014.6 |
| 20260507140333 | 52 | 315 | 3.5 | 9.6 | 0.00 | 0.00 | 0.00 | 51 | 1014.5 |
| 20260507135843 | 52 | 39 | 6.1 | 7.8 | 0.00 | 0.00 | 0.00 | 53 | 1014.6 |
| 20260507135316 | 52 | 243 | 2.6 | 8.7 | 0.00 | 0.00 | 0.00 | 54 | 1014.5 |
| 20260507134828 | 52 | 47 | 6.1 | 8.7 | 0.00 | 0.00 | 0.00 | 55 | 1014.5 |
| 20260507133840 | 52 | 360 | 3.5 | 7.0 | 0.00 | 0.00 | 0.00 | 54 | 1014.5 |
| 20260507133332 | 52 | 39 | 2.6 | 5.2 | 0.00 | 0.00 | 0.00 | 59 | 1014.4 |
| 20260507132825 | 52 | 27 | 1.7 | 3.5 | 0.00 | 0.00 | 0.00 | 63 | 1014.5 |
| 20260507132318 | 51 | 36 | 1.7 | 4.3 | 0.00 | 0.00 | 0.00 | 63 | 1014.5 |
| 20260507131832 | 51 | 37 | 1.7 | 4.3 | 0.00 | 0.00 | 0.00 | 62 | 1014.5 |
| 20260507131327 | 51 | 54 | 1.7 | 2.6 | 0.00 | 0.00 | 0.00 | 67 | 1014.5 |
| 20260507130821 | 50 | 13 | 0.9 | 3.5 | 0.00 | 0.00 | 0.00 | 71 | 1014.6 |
| 20260507130353 | 50 | 296 | 1.7 | 3.5 | 0.00 | 0.00 | 0.00 | 70 | 1014.5 |
| 20260507125822 | 50 | 79 | 1.7 | 3.5 | 0.00 | 0.00 | 0.00 | 70 | 1014.5 |
| 20260507125320 | 50 | 40 | 0.0 | 2.6 | 0.00 | 0.00 | 0.00 | 70 | 1014.5 |
| 20260507124853 | 50 | 40 | 0.9 | 2.6 | 0.00 | 0.00 | 0.00 | 69 | 1014.5 |
| 20260507124324 | 49 | 56 | 0.0 | 1.7 | 0.00 | 0.00 | 0.00 | 71 | 1014.4 |
| 20260507123817 | 49 | 57 | 0.9 | 2.6 | 0.00 | 0.00 | 0.00 | 71 | 1014.5 |
| 20260507123329 | 49 | 51 | 1.7 | 2.6 | 0.00 | 0.00 | 0.00 | 71 | 1014.5 |
| 20260507122823 | 49 | 76 | 0.9 | 1.7 | 0.00 | 0.00 | 0.00 | 71 | 1014.6 |
| 20260507122336 | 49 | 70 | 1.7 | 1.7 | 0.00 | 0.00 | 0.00 | 72 | 1014.7 |
| 20260507121828 | 49 | 32 | 0.9 | 1.7 | 0.00 | 0.00 | 0.00 | 77 | 1014.7 |
| 20260507121321 | 47 | 32 | 0.0 | 0.0 | 0.00 | 0.00 | 0.00 | 81 | 1014.7 |
| 20260507120818 | 46 | 31 | 0.0 | 0.9 | 0.00 | 0.00 | 0.00 | 81 | 1014.7 |
| 20260507120351 | 45 | 31 | 0.0 | 0.9 | 0.00 | 0.00 | 0.00 | 82 | 1014.7 |
| 20260507115817 | 45 | 32 | 0.0 | 0.9 | 0.00 | 0.00 | 0.00 | 82 | 1014.7 |
| 20260507115331 | 44 | 31 | 0.9 | 0.9 | 0.00 | 0.00 | 0.00 | 83 | 1014.8 |
| 20260507114825 | 44 | 32 | 0.0 | 1.7 | 0.00 | 0.00 | 0.00 | 83 | 1014.7 |
| 20260507114318 | 43 | 32 | 0.9 | 1.7 | 0.00 | 0.00 | 0.00 | 84 | 1014.8 |
| 20260507113831 | 43 | 32 | 0.0 | 0.0 | 0.00 | 0.00 | 0.00 | 84 | 1014.7 |
| 20260507113324 | 42 | 32 | 0.0 | 0.9 | 0.00 | 0.00 | 0.00 | 85 | 1014.7 |
| 20260507112821 | 41 | 32 | 0.0 | 0.0 | 0.00 | 0.00 | 0.00 | 85 | 1014.7 |
| 20260507112353 | 40 | 32 | 0.0 | 0.0 | 0.00 | 0.00 | 0.00 | 85 | 1014.6 |
| 20260507111824 | 40 | 31 | 0.0 | 0.0 | 0.00 | 0.00 | 0.00 | 85 | 1014.6 |
| 20260507111317 | 40 | 31 | 0.0 | 0.0 | 0.00 | 0.00 | 0.00 | 86 | 1014.5 |
| 20260507110830 | 39 | 32 | 0.0 | 0.9 | 0.00 | 0.00 | 0.00 | 86 | 1014.4 |
| 20260507110323 | 39 | 32 | 0.0 | 0.9 | 0.00 | 0.00 | 0.00 | 86 | 1014.3 |
| 20260507105814 | 39 | 32 | 0.0 | 0.9 | 0.00 | 0.00 | 0.00 | 86 | 1014.2 |
| 20260507105327 | 38 | 32 | 0.0 | 0.0 | 0.00 | 0.00 | 0.00 | 86 | 1014.2 |
| 20260507104820 | 38 | 32 | 0.0 | 0.0 | 0.00 | 0.00 | 0.00 | 86 | 1014.0 |
| 20260507104316 | 38 | 31 | 0.0 | 0.0 | 0.00 | 0.00 | 0.00 | 85 | 1013.9 |
| 20260507103828 | 38 | 31 | 0.0 | 0.0 | 0.00 | 0.00 | 0.00 | 85 | 1013.8 |
| 20260507103320 | 38 | 31 | 0.0 | 0.0 | 0.00 | 0.00 | 0.00 | 85 | 1013.8 |
| 20260507102814 | 39 | 31 | 0.0 | 0.9 | 0.00 | 0.00 | 0.00 | 85 | 1013.8 |
| 20260507101827 | 39 | 31 | 0.0 | 0.9 | 0.00 | 0.00 | 0.00 | 85 | 1013.9 |
| 20260507101322 | 40 | 31 | 0.0 | 0.9 | 0.00 | 0.00 | 0.00 | 85 | 1013.9 |
| 20260507100835 | 40 | 31 | 0.0 | 0.9 | 0.00 | 0.00 | 0.00 | 85 | 1013.9 |
| 20260507100331 | 40 | 32 | 0.0 | 0.9 | 0.00 | 0.00 | 0.00 | 86 | 1013.9 |
| 20260507095822 | 40 | 32 | 0.0 | 0.9 | 0.00 | 0.00 | 0.00 | 86 | 1013.9 |
| 20260507095316 | 40 | 31 | 0.0 | 0.9 | 0.00 | 0.00 | 0.00 | 86 | 1013.9 |
| 20260507094322 | 40 | 32 | 0.0 | 0.0 | 0.00 | 0.00 | 0.00 | 86 | 1013.9 |
| 20260507093815 | 40 | 32 | 0.0 | 0.9 | 0.00 | 0.00 | 0.00 | 86 | 1014.0 |
| 20260507085315 | 40 | 34 | 0.0 | 0.0 | 0.00 | 0.02 | 0.00 | 87 | 1013.5 |
| 20260507084827 | 40 | 34 | 0.0 | 0.0 | 0.00 | 0.02 | 0.00 | 87 | 1013.5 |
| 20260507084324 | 40 | 34 | 0.0 | 0.0 | 0.00 | 0.02 | 0.00 | 87 | 1013.5 |
| 20260507083817 | 40 | 34 | 0.0 | 0.0 | 0.00 | 0.02 | 0.00 | 87 | 1013.4 |
| 20260507083330 | 40 | 34 | 0.0 | 0.0 | 0.00 | 0.02 | 0.00 | 87 | 1013.3 |
| 20260507082823 | 40 | 34 | 0.0 | 0.0 | 0.00 | 0.02 | 0.00 | 86 | 1013.3 |
| 20260507082316 | 40 | 34 | 0.0 | 0.0 | 0.00 | 0.02 | 0.00 | 86 | 1013.3 |
| 20260507081828 | 40 | 34 | 0.0 | 0.0 | 0.00 | 0.02 | 0.00 | 86 | 1013.3 |
| 20260507081320 | 40 | 34 | 0.0 | 0.0 | 0.00 | 0.02 | 0.00 | 85 | 1013.3 |
| 20260507080816 | 41 | 34 | 0.0 | 0.0 | 0.00 | 0.02 | 0.00 | 85 | 1013.3 |
| 20260507080328 | 41 | 34 | 0.0 | 0.0 | 0.00 | 0.02 | 0.00 | 85 | 1013.3 |
| 20260507075816 | 41 | 34 | 0.0 | 0.0 | 0.00 | 0.04 | 0.00 | 84 | 1013.2 |
| 20260507073828 | 43 | 34 | 0.0 | 0.0 | 0.00 | 0.04 | 0.00 | 84 | 1013.2 |
| 20260507055327 | 43 | 34 | 0.0 | 0.0 | 0.00 | 0.42 | 0.00 | 84 | 1013.3 |
| 20260507054819 | 43 | 34 | 0.0 | 0.0 | 0.00 | 0.42 | 0.00 | 83 | 1013.4 |
| 20260507054351 | 43 | 34 | 0.0 | 0.0 | 0.00 | 0.42 | 0.00 | 83 | 1013.4 |
| 20260507053842 | 43 | 34 | 0.0 | 0.9 | 0.00 | 0.42 | 0.00 | 83 | 1013.4 |
| 20260507053353 | 44 | 34 | 0.0 | 0.9 | 0.00 | 0.42 | 0.00 | 83 | 1013.3 |
| 20260507052824 | 44 | 34 | 0.0 | 0.9 | 0.00 | 0.42 | 0.00 | 83 | 1013.4 |
| 20260507052316 | 44 | 34 | 0.0 | 0.9 | 0.00 | 0.42 | 0.00 | 83 | 1013.6 |
| 20260507051829 | 44 | 34 | 0.0 | 0.0 | 0.00 | 0.42 | 0.00 | 83 | 1013.5 |